Location: Asheville, NC
(35.6000°N, 82.5500°W)
Time: 02:21:55
(UTC-04:00)

FALCONSAT 3 - Pass Details

Date: 12 March 2018
Orbit: 461 x 464 km, 35.4° (Epoch: 20 June)

Event Time Altitude Azimuth Distance (km) Brightness Sun altitude
Exits shadow 05:35:32 30° 95° (E) 858 ? -26.9°
Drops below altitude 10° 05:37:32 10° 86° (E) 1,605 ? -26.5°
Sets 05:39:43 0° 83° (E) 2,480 ? -26.1°
